Time,TemperatureF,DewpointF,PressureIn,WindDirection,WindDirectionDegrees,WindSpeedMPH,WindSpeedGustMPH,Humidity,HourlyPrecipIn,Conditions,Clouds,dailyrainin,SoftwareType,DateUTC
2013-03-17 00:01:00,69.1,58.1,29.73,SSW,206,8.0,16.0,68,0.00,,,0.00,meteohub,2013-03-17 05:01:00,
2013-03-17 00:07:00,68.9,57.9,29.73,SSW,206,14.0,17.0,68,0.00,,,0.00,meteohub,2013-03-17 05:07:00,
2013-03-17 00:14:00,68.7,58.1,29.73,SSW,198,10.0,20.0,69,0.00,,,0.00,meteohub,2013-03-17 05:14:00,
2013-03-17 00:19:00,68.5,58.3,29.73,SSW,209,11.0,20.0,70,0.00,,,0.00,meteohub,2013-03-17 05:19:00,
2013-03-17 00:26:00,68.4,58.6,29.73,South,175,3.0,19.0,71,0.00,,,0.00,meteohub,2013-03-17 05:26:00,
2013-03-17 00:34:00,68.0,58.3,29.73,South,169,12.0,19.0,71,0.00,,,0.00,meteohub,2013-03-17 05:34:00,
2013-03-17 00:41:00,67.8,58.5,29.73,SSW,208,9.0,21.0,72,0.00,,,0.00,meteohub,2013-03-17 05:41:00,
2013-03-17 00:46:00,67.6,58.6,29.73,SW,230,6.0,21.0,73,0.00,,,0.00,meteohub,2013-03-17 05:46:00,
2013-03-17 00:51:00,67.5,58.5,29.73,SSW,202,11.0,18.0,73,0.00,,,0.00,meteohub,2013-03-17 05:51:00,
2013-03-17 00:57:00,67.3,58.6,29.73,SSE,163,12.0,17.0,74,0.00,,,0.00,meteohub,2013-03-17 05:57:00,
2013-03-17 01:02:00,67.3,59.0,29.74,SSW,207,9.0,18.0,75,0.00,,,0.00,meteohub,2013-03-17 06:02:00,
2013-03-17 01:07:00,67.1,58.8,29.74,SSW,207,13.0,19.0,75,0.00,,,0.00,meteohub,2013-03-17 06:07:00,
2013-03-17 01:12:00,66.9,58.8,29.74,SSE,160,8.0,19.0,75,0.00,,,0.00,meteohub,2013-03-17 06:12:00,
2013-03-17 01:17:00,66.9,59.2,29.74,South,186,10.0,20.0,76,0.00,,,0.00,meteohub,2013-03-17 06:17:00,
2013-03-17 01:26:00,66.7,59.0,29.74,South,187,8.0,19.0,76,0.00,,,0.00,meteohub,2013-03-17 06:26:00,
2013-03-17 01:32:00,66.7,59.4,29.75,South,189,9.0,17.0,77,0.00,,,0.00,meteohub,2013-03-17 06:32:00,
2013-03-17 01:37:00,66.7,59.4,29.75,South,175,13.0,17.0,77,0.00,,,0.00,meteohub,2013-03-17 06:37:00,
2013-03-17 01:43:00,66.7,59.4,29.75,SSW,203,7.0,19.0,77,0.00,,,0.00,meteohub,2013-03-17 06:43:00,
2013-03-17 01:48:00,66.7,59.4,29.75,SSW,207,9.0,19.0,77,0.00,,,0.00,meteohub,2013-03-17 06:48:00,
2013-03-17 01:54:00,66.9,59.5,29.75,SW,215,13.0,19.0,77,0.00,,,0.00,meteohub,2013-03-17 06:54:00,
2013-03-17 01:59:00,66.9,59.5,29.75,South,186,11.0,18.0,77,0.00,,,0.00,meteohub,2013-03-17 06:59:00,
2013-03-17 02:05:00,66.9,59.5,29.75,SSW,209,6.0,18.0,77,0.00,,,0.00,meteohub,2013-03-17 07:05:00,
2013-03-17 02:10:00,66.9,59.5,29.74,South,179,9.0,18.0,77,0.00,,,0.00,meteohub,2013-03-17 07:10:00,
2013-03-17 02:16:00,67.1,59.7,29.74,South,182,18.0,18.0,77,0.00,,,0.00,meteohub,2013-03-17 07:16:00,
2013-03-17 02:21:00,67.1,59.7,29.74,SSW,198,10.0,21.0,77,0.00,,,0.00,meteohub,2013-03-17 07:21:00,
2013-03-17 02:27:00,67.1,59.7,29.74,SSW,204,9.0,21.0,77,0.00,,,0.00,meteohub,2013-03-17 07:27:00,
2013-03-17 02:33:00,67.1,59.7,29.74,SSW,207,11.0,21.0,77,0.00,,,0.00,meteohub,2013-03-17 07:33:00,
2013-03-17 02:38:00,67.3,59.9,29.74,SSW,207,11.0,18.0,77,0.00,,,0.00,meteohub,2013-03-17 07:38:00,
2013-03-17 02:44:00,67.3,59.9,29.73,SSW,194,7.0,18.0,77,0.00,,,0.00,meteohub,2013-03-17 07:44:00,
2013-03-17 02:50:00,67.3,59.9,29.73,SSW,211,14.0,16.0,77,0.00,,,0.00,meteohub,2013-03-17 07:50:00,
2013-03-17 02:56:00,67.3,59.9,29.73,SSW,194,7.0,19.0,77,0.00,,,0.00,meteohub,2013-03-17 07:56:00,
2013-03-17 03:01:00,67.3,59.9,29.73,SW,219,10.0,19.0,77,0.00,,,0.00,meteohub,2013-03-17 08:01:00,
2013-03-17 03:07:00,67.3,59.9,29.73,SSW,201,8.0,19.0,77,0.00,,,0.00,meteohub,2013-03-17 08:07:00,
2013-03-17 03:12:00,67.3,59.9,29.73,South,185,7.0,17.0,77,0.00,,,0.00,meteohub,2013-03-17 08:12:00,
2013-03-17 03:17:00,67.3,59.9,29.73,SSW,192,11.0,17.0,77,0.00,,,0.00,meteohub,2013-03-17 08:17:00,
2013-03-17 03:23:00,67.1,60.1,29.73,South,185,9.0,14.0,78,0.00,,,0.00,meteohub,2013-03-17 08:23:00,
2013-03-17 03:28:00,67.1,60.1,29.73,SSW,211,12.0,14.0,78,0.00,,,0.00,meteohub,2013-03-17 08:28:00,
2013-03-17 03:37:00,66.9,59.9,29.73,SSE,151,8.0,18.0,78,0.00,,,0.00,meteohub,2013-03-17 08:37:00,
2013-03-17 03:42:00,66.9,59.9,29.73,SW,223,9.0,18.0,78,0.00,,,0.00,meteohub,2013-03-17 08:42:00,
2013-03-17 03:47:00,66.9,59.9,29.73,SW,222,10.0,17.0,78,0.00,,,0.00,meteohub,2013-03-17 08:47:00,
2013-03-17 03:53:00,66.9,60.3,29.73,SSE,167,5.0,15.0,79,0.00,,,0.00,meteohub,2013-03-17 08:53:00,
2013-03-17 04:00:00,66.7,60.1,29.73,SW,214,5.0,15.0,79,0.00,,,0.00,meteohub,2013-03-17 09:00:00,
2013-03-17 04:05:00,66.7,60.1,29.73,SW,214,6.0,12.0,79,0.00,,,0.00,meteohub,2013-03-17 09:05:00,
2013-03-17 04:11:00,66.7,60.1,29.73,SSW,201,3.0,15.0,79,0.00,,,0.00,meteohub,2013-03-17 09:11:00,
2013-03-17 04:17:00,66.7,60.1,29.73,SSW,192,5.0,15.0,79,0.00,,,0.00,meteohub,2013-03-17 09:17:00,
2013-03-17 04:24:00,66.7,60.1,29.73,SSW,193,7.0,10.0,79,0.00,,,0.00,meteohub,2013-03-17 09:24:00,
2013-03-17 04:31:00,66.6,59.9,29.73,SSW,210,7.0,10.0,79,0.00,,,0.00,meteohub,2013-03-17 09:31:00,
2013-03-17 04:37:00,66.6,59.9,29.73,SW,214,4.0,9.0,79,0.00,,,0.00,meteohub,2013-03-17 09:37:00,
2013-03-17 04:42:00,66.6,59.9,29.73,South,178,4.0,9.0,79,0.00,,,0.00,meteohub,2013-03-17 09:42:00,
2013-03-17 04:47:00,66.6,59.9,29.73,South,188,9.0,9.0,79,0.00,,,0.00,meteohub,2013-03-17 09:47:00,
2013-03-17 04:53:00,66.4,60.1,29.73,South,183,6.0,10.0,80,0.00,,,0.00,meteohub,2013-03-17 09:53:00,
2013-03-17 04:59:00,66.4,60.1,29.73,SW,218,5.0,10.0,80,0.00,,,0.00,meteohub,2013-03-17 09:59:00,
2013-03-17 05:05:00,66.2,59.9,29.73,SSW,196,5.0,10.0,80,0.00,,,0.00,meteohub,2013-03-17 10:05:00,
2013-03-17 05:12:00,66.0,59.7,29.73,SW,221,7.0,10.0,80,0.00,,,0.00,meteohub,2013-03-17 10:12:00,
2013-03-17 05:17:00,66.0,60.1,29.73,South,182,2.0,11.0,81,0.00,,,0.00,meteohub,2013-03-17 10:17:00,
2013-03-17 05:26:00,66.0,60.1,29.73,South,186,3.0,11.0,81,0.00,,,0.00,meteohub,2013-03-17 10:26:00,
2013-03-17 05:32:00,65.8,59.9,29.73,South,175,0.0,9.0,81,0.00,,,0.00,meteohub,2013-03-17 10:32:00,
2013-03-17 05:37:00,65.8,59.9,29.73,SSW,192,2.0,9.0,81,0.00,,,0.00,meteohub,2013-03-17 10:37:00,
2013-03-17 05:43:00,65.8,59.9,29.73,South,184,3.0,8.0,81,0.00,,,0.00,meteohub,2013-03-17 10:43:00,
2013-03-17 05:49:00,65.8,59.9,29.74,South,178,1.0,8.0,81,0.00,,,0.00,meteohub,2013-03-17 10:49:00,
2013-03-17 05:57:00,65.7,60.1,29.74,South,180,2.0,8.0,82,0.00,,,0.00,meteohub,2013-03-17 10:57:00,
2013-03-17 06:02:00,65.7,60.1,29.74,South,184,5.0,6.0,82,0.00,,,0.00,meteohub,2013-03-17 11:02:00,
2013-03-17 06:07:00,65.7,60.1,29.74,South,184,1.0,7.0,82,0.00,,,0.00,meteohub,2013-03-17 11:07:00,
2013-03-17 06:12:00,65.7,60.1,29.74,South,190,2.0,7.0,82,0.00,,,0.00,meteohub,2013-03-17 11:12:00,
2013-03-17 06:17:00,65.7,60.1,29.74,South,171,3.0,7.0,82,0.00,,,0.00,meteohub,2013-03-17 11:17:00,
2013-03-17 06:24:00,65.7,60.1,29.74,SSW,195,5.0,7.0,82,0.00,,,0.00,meteohub,2013-03-17 11:24:00,
2013-03-17 06:29:00,65.5,59.9,29.74,South,189,4.0,7.0,82,0.00,,,0.00,meteohub,2013-03-17 11:29:00,
2013-03-17 06:37:00,65.5,60.3,29.74,South,172,5.0,10.0,83,0.00,,,0.00,meteohub,2013-03-17 11:37:00,
2013-03-17 06:42:00,65.5,60.3,29.74,South,186,3.0,10.0,83,0.00,,,0.00,meteohub,2013-03-17 11:42:00,
2013-03-17 06:48:00,65.5,60.3,29.74,South,184,3.0,10.0,83,0.00,,,0.00,meteohub,2013-03-17 11:48:00,
2013-03-17 06:53:00,65.3,60.1,29.74,South,169,3.0,10.0,83,0.00,,,0.00,meteohub,2013-03-17 11:53:00,
2013-03-17 06:59:00,65.3,60.1,29.74,SSE,163,6.0,10.0,83,0.00,,,0.00,meteohub,2013-03-17 11:59:00,
2013-03-17 07:05:00,65.1,59.9,29.74,South,173,6.0,9.0,83,0.00,,,0.00,meteohub,2013-03-17 12:05:00,
2013-03-17 07:10:00,65.1,60.1,29.75,South,182,3.0,9.0,84,0.00,,,0.00,meteohub,2013-03-17 12:10:00,
2013-03-17 07:16:00,65.1,60.1,29.75,South,171,7.0,11.0,84,0.00,,,0.00,meteohub,2013-03-17 12:16:00,
2013-03-17 07:22:00,65.1,60.1,29.75,South,176,6.0,11.0,84,0.00,,,0.00,meteohub,2013-03-17 12:22:00,
2013-03-17 07:27:00,65.1,60.1,29.75,South,180,7.0,11.0,84,0.00,,,0.00,meteohub,2013-03-17 12:27:00,
2013-03-17 07:32:00,65.1,60.1,29.75,SSE,164,5.0,11.0,84,0.00,,,0.00,meteohub,2013-03-17 12:32:00,
2013-03-17 07:38:00,65.1,60.1,29.76,South,178,4.0,11.0,84,0.00,,,0.00,meteohub,2013-03-17 12:38:00,
2013-03-17 07:44:00,65.3,60.3,29.75,South,182,2.0,10.0,84,0.00,,,0.00,meteohub,2013-03-17 12:44:00,
2013-03-17 07:50:00,65.3,60.1,29.76,South,175,5.0,9.0,83,0.00,,,0.00,meteohub,2013-03-17 12:50:00,
2013-03-17 07:57:00,65.5,60.3,29.75,South,190,5.0,11.0,83,0.00,,,0.00,meteohub,2013-03-17 12:57:00,
2013-03-17 08:02:00,65.5,60.3,29.75,SSW,202,7.0,11.0,83,0.00,,,0.00,meteohub,2013-03-17 13:02:00,
2013-03-17 08:09:00,65.5,60.3,29.75,SSW,195,5.0,12.0,83,0.00,,,0.00,meteohub,2013-03-17 13:09:00,
2013-03-17 08:15:00,65.5,60.3,29.76,South,182,4.0,12.0,83,0.00,,,0.00,meteohub,2013-03-17 13:15:00,
2013-03-17 08:20:00,65.5,60.3,29.76,South,190,5.0,11.0,83,0.00,,,0.00,meteohub,2013-03-17 13:20:00,
2013-03-17 08:26:00,65.7,60.1,29.76,SW,214,5.0,11.0,82,0.00,,,0.00,meteohub,2013-03-17 13:26:00,
2013-03-17 08:32:00,65.7,60.1,29.76,South,180,11.0,11.0,82,0.00,,,0.00,meteohub,2013-03-17 13:32:00,
2013-03-17 08:39:00,65.8,59.9,29.76,South,184,6.0,11.0,81,0.00,,,0.00,meteohub,2013-03-17 13:39:00,
2013-03-17 08:47:00,66.0,60.1,29.76,SSW,196,2.0,11.0,81,0.00,,,0.00,meteohub,2013-03-17 13:47:00,
2013-03-17 08:53:00,66.0,59.7,29.76,SSE,165,8.0,10.0,80,0.00,,,0.00,meteohub,2013-03-17 13:53:00,
2013-03-17 08:59:00,66.2,59.9,29.76,South,180,6.0,10.0,80,0.00,,,0.00,meteohub,2013-03-17 13:59:00,
2013-03-17 09:05:00,66.4,60.1,29.76,SSE,167,6.0,12.0,80,0.00,,,0.00,meteohub,2013-03-17 14:05:00,
2013-03-17 09:11:00,66.4,60.1,29.76,SSW,200,7.0,10.0,80,0.00,,,0.00,meteohub,2013-03-17 14:11:00,
2013-03-17 09:17:00,66.6,60.3,29.77,South,171,8.0,11.0,80,0.00,,,0.00,meteohub,2013-03-17 14:17:00,
2013-03-17 09:22:00,66.6,60.3,29.77,South,189,3.0,12.0,80,0.00,,,0.00,meteohub,2013-03-17 14:22:00,
2013-03-17 09:27:00,66.7,60.4,29.77,SSW,204,6.0,12.0,80,0.00,,,0.00,meteohub,2013-03-17 14:27:00,
2013-03-17 09:36:00,66.9,60.3,29.77,SSE,165,6.0,14.0,79,0.00,,,0.00,meteohub,2013-03-17 14:36:00,
2013-03-17 09:41:00,66.9,60.3,29.77,South,184,6.0,14.0,79,0.00,,,0.00,meteohub,2013-03-17 14:41:00,
2013-03-17 09:47:00,67.3,60.6,29.77,SSW,211,11.0,14.0,79,0.00,,,0.00,meteohub,2013-03-17 14:47:00,
2013-03-17 09:52:00,67.3,60.6,29.77,SSW,205,6.0,12.0,79,0.00,,,0.00,meteohub,2013-03-17 14:52:00,
2013-03-17 09:57:00,67.5,60.4,29.77,South,175,7.0,14.0,78,0.00,,,0.00,meteohub,2013-03-17 14:57:00,
2013-03-17 10:02:00,67.6,60.6,29.77,SW,223,9.0,14.0,78,0.00,,,0.00,meteohub,2013-03-17 15:02:00,
2013-03-17 10:07:00,67.8,60.6,29.77,SSW,207,5.0,14.0,78,0.00,,,0.00,meteohub,2013-03-17 15:07:00,
2013-03-17 10:13:00,67.8,60.3,29.78,South,188,6.0,13.0,77,0.00,,,0.00,meteohub,2013-03-17 15:13:00,
2013-03-17 10:21:00,67.8,60.6,29.78,SW,221,4.0,14.0,78,0.00,,,0.00,meteohub,2013-03-17 15:21:00,
2013-03-17 10:27:00,67.6,60.3,29.78,SSW,211,8.0,14.0,77,0.00,,,0.00,meteohub,2013-03-17 15:27:00,
2013-03-17 10:33:00,67.6,60.6,29.78,SW,219,9.0,16.0,78,0.00,,,0.00,meteohub,2013-03-17 15:33:00,
2013-03-17 10:39:00,67.6,60.6,29.78,SSW,207,9.0,16.0,78,0.00,,,0.00,meteohub,2013-03-17 15:39:00,
2013-03-17 10:47:00,67.8,60.6,29.78,SW,220,9.0,12.0,78,0.00,,,0.00,meteohub,2013-03-17 15:47:00,
2013-03-17 10:54:00,67.8,60.6,29.78,South,180,8.0,12.0,78,0.00,,,0.00,meteohub,2013-03-17 15:54:00,
2013-03-17 11:01:00,67.6,60.6,29.78,SSW,207,7.0,13.0,78,0.00,,,0.00,meteohub,2013-03-17 16:01:00,
2013-03-17 11:06:00,67.5,60.4,29.78,South,188,5.0,13.0,78,0.00,,,0.00,meteohub,2013-03-17 16:06:00,
2013-03-17 11:12:00,67.5,60.8,29.78,South,188,0.0,15.0,79,0.00,,,0.00,meteohub,2013-03-17 16:12:00,
2013-03-17 11:17:00,67.6,60.6,29.77,South,173,3.0,15.0,78,0.00,,,0.00,meteohub,2013-03-17 16:17:00,
2013-03-17 11:22:00,68.4,60.8,29.76,SW,219,11.0,12.0,77,0.00,,,0.00,meteohub,2013-03-17 16:22:00,
2013-03-17 11:27:00,68.7,60.8,29.76,SW,223,8.0,14.0,76,0.00,,,0.00,meteohub,2013-03-17 16:27:00,
2013-03-17 11:32:00,69.4,60.8,29.76,South,184,6.0,14.0,74,0.00,,,0.00,meteohub,2013-03-17 16:32:00,
2013-03-17 11:42:00,70.2,61.2,29.75,South,182,14.0,15.0,73,0.00,,,0.00,meteohub,2013-03-17 16:42:00,
2013-03-17 11:47:00,70.3,61.3,29.75,South,185,6.0,15.0,73,0.00,,,0.00,meteohub,2013-03-17 16:47:00,
2013-03-17 11:52:00,71.2,61.3,29.75,SSW,209,9.0,15.0,71,0.00,,,0.00,meteohub,2013-03-17 16:52:00,
2013-03-17 11:58:00,71.8,61.5,29.75,SSE,163,7.0,17.0,70,0.00,,,0.00,meteohub,2013-03-17 16:58:00,
2013-03-17 12:04:00,71.8,60.6,29.74,South,171,9.0,17.0,68,0.00,,,0.00,meteohub,2013-03-17 17:04:00,
2013-03-17 12:09:00,71.6,60.4,29.74,SSE,165,10.0,17.0,68,0.00,,,0.00,meteohub,2013-03-17 17:09:00,
2013-03-17 12:16:00,72.0,59.9,29.74,SSW,211,13.0,17.0,66,0.00,,,0.00,meteohub,2013-03-17 17:16:00,
2013-03-17 12:24:00,72.3,60.3,29.74,SW,225,8.0,20.0,66,0.00,,,0.00,meteohub,2013-03-17 17:24:00,
2013-03-17 12:33:00,72.7,59.4,29.74,SW,217,13.0,20.0,63,0.00,,,0.00,meteohub,2013-03-17 17:33:00,
2013-03-17 12:38:00,72.3,59.5,29.73,South,191,11.0,20.0,64,0.00,,,0.00,meteohub,2013-03-17 17:38:00,
2013-03-17 12:44:00,72.5,59.5,29.73,SSW,207,11.0,22.0,64,0.00,,,0.00,meteohub,2013-03-17 17:44:00,
2013-03-17 12:51:00,72.1,59.7,29.73,SW,219,15.0,19.0,65,0.00,,,0.00,meteohub,2013-03-17 17:51:00,
2013-03-17 12:57:00,72.0,59.9,29.73,SSW,211,5.0,22.0,66,0.00,,,0.00,meteohub,2013-03-17 17:57:00,
2013-03-17 13:02:00,72.0,59.9,29.73,SW,217,8.0,22.0,66,0.00,,,0.00,meteohub,2013-03-17 18:02:00,
2013-03-17 13:09:00,72.0,59.9,29.73,SW,229,8.0,22.0,66,0.00,,,0.00,meteohub,2013-03-17 18:09:00,
2013-03-17 13:15:00,72.5,60.1,29.73,SW,227,17.0,18.0,65,0.00,,,0.00,meteohub,2013-03-17 18:15:00,
2013-03-17 13:21:00,72.7,59.7,29.72,SW,225,8.0,17.0,64,0.00,,,0.00,meteohub,2013-03-17 18:21:00,
2013-03-17 13:26:00,72.9,59.9,29.72,SW,228,11.0,17.0,64,0.00,,,0.00,meteohub,2013-03-17 18:26:00,
2013-03-17 13:36:00,73.4,60.4,29.71,SW,234,9.0,16.0,64,0.00,,,0.00,meteohub,2013-03-17 18:36:00,
2013-03-17 13:41:00,73.0,60.1,29.71,SSW,196,7.0,17.0,64,0.00,,,0.00,meteohub,2013-03-17 18:41:00,
2013-03-17 13:46:00,73.0,59.7,29.71,South,190,7.0,17.0,63,0.00,,,0.00,meteohub,2013-03-17 18:46:00,
2013-03-17 13:52:00,73.0,59.7,29.71,WSW,256,5.0,17.0,63,0.00,,,0.00,meteohub,2013-03-17 18:52:00,
2013-03-17 13:58:00,73.0,59.7,29.71,SW,225,13.0,14.0,63,0.00,,,0.00,meteohub,2013-03-17 18:58:00,
2013-03-17 14:03:00,73.0,59.7,29.71,SW,214,10.0,16.0,63,0.00,,,0.00,meteohub,2013-03-17 19:03:00,
2013-03-17 14:12:00,73.0,59.7,29.70,SW,215,19.0,19.0,63,0.00,,,0.00,meteohub,2013-03-17 19:12:00,
2013-03-17 14:17:00,73.0,59.2,29.70,SW,219,11.0,20.0,62,0.00,,,0.00,meteohub,2013-03-17 19:17:00,
2013-03-17 14:24:00,73.2,59.0,29.70,WSW,244,9.0,20.0,61,0.00,,,0.00,meteohub,2013-03-17 19:24:00,
2013-03-17 14:32:00,73.4,58.6,29.69,West,260,7.0,17.0,60,0.00,,,0.00,meteohub,2013-03-17 19:32:00,
2013-03-17 14:37:00,73.6,58.8,29.69,WSW,244,7.0,16.0,60,0.00,,,0.00,meteohub,2013-03-17 19:37:00,
2013-03-17 14:43:00,73.6,58.8,29.69,West,263,9.0,18.0,60,0.00,,,0.00,meteohub,2013-03-17 19:43:00,
2013-03-17 14:50:00,73.4,58.3,29.69,West,270,11.0,18.0,59,0.00,,,0.00,meteohub,2013-03-17 19:50:00,
2013-03-17 14:56:00,72.7,55.0,29.69,NW,306,12.0,16.0,54,0.00,,,0.00,meteohub,2013-03-17 19:56:00,
2013-03-17 15:02:00,72.1,55.0,29.68,WNW,300,5.0,16.0,55,0.00,,,0.00,meteohub,2013-03-17 20:02:00,
2013-03-17 15:07:00,72.1,54.1,29.68,NNW,332,5.0,16.0,53,0.00,,,0.00,meteohub,2013-03-17 20:07:00,
2013-03-17 15:14:00,72.3,54.1,29.68,WNW,302,7.0,13.0,53,0.00,,,0.00,meteohub,2013-03-17 20:14:00,
2013-03-17 15:20:00,72.9,54.7,29.68,West,276,4.0,15.0,53,0.00,,,0.00,meteohub,2013-03-17 20:20:00,
2013-03-17 15:25:00,73.0,54.3,29.68,WNW,282,15.0,15.0,52,0.00,,,0.00,meteohub,2013-03-17 20:25:00,
2013-03-17 15:31:00,72.9,53.1,29.68,WNW,284,9.0,15.0,50,0.00,,,0.00,meteohub,2013-03-17 20:31:00,
2013-03-17 15:37:00,72.7,52.3,29.68,WNW,299,7.0,15.0,49,0.00,,,0.00,meteohub,2013-03-17 20:37:00,
2013-03-17 15:42:00,72.5,52.9,29.68,WNW,294,8.0,15.0,50,0.00,,,0.00,meteohub,2013-03-17 20:42:00,
2013-03-17 15:49:00,72.7,51.8,29.67,West,277,3.0,15.0,48,0.00,,,0.00,meteohub,2013-03-17 20:49:00,
2013-03-17 15:54:00,72.9,52.0,29.67,WNW,291,5.0,14.0,48,0.00,,,0.00,meteohub,2013-03-17 20:54:00,
2013-03-17 16:01:00,72.7,51.8,29.67,WNW,284,12.0,14.0,48,0.00,,,0.00,meteohub,2013-03-17 21:01:00,
2013-03-17 16:06:00,72.3,51.4,29.67,WNW,282,2.0,14.0,48,0.00,,,0.00,meteohub,2013-03-17 21:06:00,
2013-03-17 16:12:00,72.3,51.4,29.67,NW,311,5.0,14.0,48,0.00,,,0.00,meteohub,2013-03-17 21:12:00,
2013-03-17 16:19:00,72.7,52.3,29.66,WNW,288,10.0,13.0,49,0.00,,,0.00,meteohub,2013-03-17 21:19:00,
2013-03-17 16:25:00,72.7,52.3,29.66,NW,304,7.0,13.0,49,0.00,,,0.00,meteohub,2013-03-17 21:25:00,
2013-03-17 16:32:00,72.7,52.3,29.66,West,268,9.0,12.0,49,0.00,,,0.00,meteohub,2013-03-17 21:32:00,
2013-03-17 16:37:00,72.7,52.3,29.66,NW,308,9.0,14.0,49,0.00,,,0.00,meteohub,2013-03-17 21:37:00,
2013-03-17 16:42:00,72.9,53.1,29.66,WNW,284,4.0,14.0,50,0.00,,,0.00,meteohub,2013-03-17 21:42:00,
2013-03-17 16:47:00,73.2,52.9,29.66,West,271,8.0,14.0,49,0.00,,,0.00,meteohub,2013-03-17 21:47:00,
2013-03-17 16:52:00,73.0,52.7,29.66,NW,304,6.0,13.0,49,0.00,,,0.00,meteohub,2013-03-17 21:52:00,
2013-03-17 16:59:00,73.0,52.7,29.65,WNW,298,8.0,13.0,49,0.00,,,0.00,meteohub,2013-03-17 21:59:00,
2013-03-17 17:06:00,73.0,52.7,29.66,WNW,286,9.0,16.0,49,0.00,,,0.00,meteohub,2013-03-17 22:06:00,
2013-03-17 17:12:00,73.0,52.7,29.65,WNW,300,8.0,16.0,49,0.00,,,0.00,meteohub,2013-03-17 22:12:00,
2013-03-17 17:17:00,72.9,52.5,29.66,West,277,9.0,12.0,49,0.00,,,0.00,meteohub,2013-03-17 22:17:00,
2013-03-17 17:24:00,72.7,51.8,29.66,NW,309,7.0,13.0,48,0.00,,,0.00,meteohub,2013-03-17 22:24:00,
2013-03-17 17:31:00,72.9,52.5,29.66,WNW,299,10.0,15.0,49,0.00,,,0.00,meteohub,2013-03-17 22:31:00,
2013-03-17 17:36:00,72.9,52.5,29.66,NW,304,10.0,12.0,49,0.00,,,0.00,meteohub,2013-03-17 22:36:00,
2013-03-17 17:43:00,72.5,52.3,29.66,NW,310,6.0,13.0,49,0.00,,,0.00,meteohub,2013-03-17 22:43:00,
2013-03-17 17:51:00,72.1,52.0,29.66,WNW,288,5.0,12.0,49,0.00,,,0.00,meteohub,2013-03-17 22:51:00,
2013-03-17 17:57:00,72.0,52.3,29.66,NW,309,7.0,12.0,50,0.00,,,0.00,meteohub,2013-03-17 22:57:00,
2013-03-17 18:02:00,72.0,52.3,29.66,NNW,333,3.0,12.0,50,0.00,,,0.00,meteohub,2013-03-17 23:02:00,
2013-03-17 18:07:00,72.3,52.2,29.66,West,277,4.0,11.0,49,0.00,,,0.00,meteohub,2013-03-17 23:07:00,
2013-03-17 18:12:00,72.3,52.2,29.66,NW,309,5.0,10.0,49,0.00,,,0.00,meteohub,2013-03-17 23:12:00,
2013-03-17 18:17:00,72.5,52.9,29.66,West,274,4.0,10.0,50,0.00,,,0.00,meteohub,2013-03-17 23:17:00,
2013-03-17 18:22:00,72.5,53.4,29.66,WNW,292,8.0,12.0,51,0.00,,,0.00,meteohub,2013-03-17 23:22:00,
2013-03-17 18:27:00,72.5,53.4,29.66,WNW,282,5.0,12.0,51,0.00,,,0.00,meteohub,2013-03-17 23:27:00,
2013-03-17 18:34:00,72.3,53.2,29.66,West,271,11.0,12.0,51,0.00,,,0.00,meteohub,2013-03-17 23:34:00,
2013-03-17 18:39:00,72.3,53.8,29.66,WNW,294,4.0,12.0,52,0.00,,,0.00,meteohub,2013-03-17 23:39:00,
2013-03-17 18:47:00,72.1,53.6,29.66,NW,305,5.0,12.0,52,0.00,,,0.00,meteohub,2013-03-17 23:47:00,
2013-03-17 18:52:00,72.1,53.6,29.66,West,267,3.0,10.0,52,0.00,,,0.00,meteohub,2013-03-17 23:52:00,
2013-03-17 18:57:00,72.1,54.1,29.66,WNW,298,3.0,9.0,53,0.00,,,0.00,meteohub,2013-03-17 23:57:00,
2013-03-17 19:05:00,72.1,54.1,29.66,WNW,290,3.0,10.0,53,0.00,,,0.00,meteohub,2013-03-18 00:05:00,
2013-03-17 19:11:00,72.0,54.0,29.66,West,281,4.0,10.0,53,0.00,,,0.00,meteohub,2013-03-18 00:11:00,
2013-03-17 19:17:00,72.0,54.0,29.66,WNW,291,3.0,10.0,53,0.00,,,0.00,meteohub,2013-03-18 00:17:00,
2013-03-17 19:25:00,71.8,53.8,29.67,WNW,292,1.0,8.0,53,0.00,,,0.00,meteohub,2013-03-18 00:25:00,
2013-03-17 19:31:00,71.4,54.0,29.66,WNW,296,3.0,7.0,54,0.00,,,0.00,meteohub,2013-03-18 00:31:00,
2013-03-17 19:38:00,71.2,53.8,29.67,WNW,302,2.0,6.0,54,0.00,,,0.00,meteohub,2013-03-18 00:38:00,
2013-03-17 19:46:00,71.1,54.1,29.67,WNW,288,4.0,5.0,55,0.00,,,0.00,meteohub,2013-03-18 00:46:00,
2013-03-17 19:52:00,70.9,54.0,29.67,WNW,285,2.0,6.0,55,0.00,,,0.00,meteohub,2013-03-18 00:52:00,
2013-03-17 19:57:00,70.7,53.8,29.68,WNW,284,3.0,6.0,55,0.00,,,0.00,meteohub,2013-03-18 00:57:00,
2013-03-17 20:03:00,70.5,53.6,29.68,WNW,294,3.0,6.0,55,0.00,,,0.00,meteohub,2013-03-18 01:03:00,
2013-03-17 20:11:00,70.3,53.4,29.68,WNW,283,0.0,5.0,55,0.00,,,0.00,meteohub,2013-03-18 01:11:00,
2013-03-17 20:16:00,70.3,53.4,29.68,WNW,283,0.0,5.0,55,0.00,,,0.00,meteohub,2013-03-18 01:16:00,
2013-03-17 20:22:00,70.2,53.8,29.68,WNW,283,0.0,4.0,56,0.00,,,0.00,meteohub,2013-03-18 01:22:00,
2013-03-17 20:27:00,70.0,53.6,29.68,WNW,283,2.0,2.0,56,0.00,,,0.00,meteohub,2013-03-18 01:27:00,
2013-03-17 20:32:00,70.0,53.6,29.68,WNW,283,0.0,3.0,56,0.00,,,0.00,meteohub,2013-03-18 01:32:00,
2013-03-17 20:38:00,69.8,53.4,29.68,WNW,283,0.0,3.0,56,0.00,,,0.00,meteohub,2013-03-18 01:38:00,
2013-03-17 20:44:00,69.6,53.8,29.68,WNW,283,0.0,3.0,57,0.00,,,0.00,meteohub,2013-03-18 01:44:00,
2013-03-17 20:50:00,69.4,53.6,29.68,WNW,283,0.0,0.0,57,0.00,,,0.00,meteohub,2013-03-18 01:50:00,
2013-03-17 20:56:00,69.1,53.2,29.68,WNW,283,1.0,0.0,57,0.00,,,0.00,meteohub,2013-03-18 01:56:00,
2013-03-17 21:02:00,68.4,53.1,29.68,West,281,1.0,2.0,58,0.00,,,0.00,meteohub,2013-03-18 02:02:00,
2013-03-17 21:07:00,68.0,53.1,29.68,West,275,0.0,2.0,59,0.00,,,0.00,meteohub,2013-03-18 02:07:00,
2013-03-17 21:14:00,67.5,52.7,29.68,SW,217,0.0,2.0,59,0.00,,,0.00,meteohub,2013-03-18 02:14:00,
2013-03-17 21:20:00,66.9,52.5,29.68,SW,217,2.0,2.0,60,0.00,,,0.00,meteohub,2013-03-18 02:20:00,
2013-03-17 21:27:00,66.4,52.5,29.68,South,175,3.0,3.0,61,0.00,,,0.00,meteohub,2013-03-18 02:27:00,
2013-03-17 21:32:00,66.0,52.2,29.68,SSE,153,1.0,3.0,61,0.00,,,0.00,meteohub,2013-03-18 02:32:00,
2013-03-17 21:37:00,65.8,52.0,29.68,SSE,153,0.0,3.0,61,0.00,,,0.00,meteohub,2013-03-18 02:37:00,
2013-03-17 21:42:00,65.7,51.8,29.69,SSE,153,0.0,3.0,61,0.00,,,0.00,meteohub,2013-03-18 02:42:00,
2013-03-17 21:51:00,65.1,51.8,29.69,SSE,153,0.0,2.0,62,0.00,,,0.00,meteohub,2013-03-18 02:51:00,
2013-03-17 21:58:00,64.9,52.0,29.69,SSE,153,0.0,1.0,63,0.00,,,0.00,meteohub,2013-03-18 02:58:00,
2013-03-17 22:06:00,64.6,52.2,29.69,SSE,153,0.0,0.0,64,0.00,,,0.00,meteohub,2013-03-18 03:06:00,
2013-03-17 22:11:00,64.4,52.0,29.69,SSE,153,0.0,0.0,64,0.00,,,0.00,meteohub,2013-03-18 03:11:00,
2013-03-17 22:17:00,64.2,51.8,29.70,SSE,153,0.0,2.0,64,0.00,,,0.00,meteohub,2013-03-18 03:17:00,
2013-03-17 22:22:00,64.2,51.8,29.70,SSE,153,0.0,2.0,64,0.00,,,0.00,meteohub,2013-03-18 03:22:00,
2013-03-17 22:27:00,64.0,51.6,29.70,SSE,153,0.0,0.0,64,0.00,,,0.00,meteohub,2013-03-18 03:27:00,
2013-03-17 22:32:00,64.0,52.0,29.70,SSE,153,0.0,0.0,65,0.00,,,0.00,meteohub,2013-03-18 03:32:00,
2013-03-17 22:38:00,63.9,51.8,29.71,SSE,153,0.0,1.0,65,0.00,,,0.00,meteohub,2013-03-18 03:38:00,
2013-03-17 22:44:00,63.9,51.8,29.71,SE,126,1.0,2.0,65,0.00,,,0.00,meteohub,2013-03-18 03:44:00,
2013-03-17 22:53:00,63.1,52.0,29.72,NNE,13,2.0,3.0,67,0.00,,,0.00,meteohub,2013-03-18 03:53:00,
2013-03-17 23:00:00,62.4,51.8,29.72,North,355,2.0,5.0,68,0.00,,,0.00,meteohub,2013-03-18 04:00:00,
2013-03-17 23:01:00,62.4,51.8,29.72,North,355,2.0,5.0,68,0.00,,,0.00,meteohub,2013-03-18 04:01:00,
2013-03-17 23:06:00,62.1,51.4,29.72,North,355,1.0,5.0,68,0.00,,,0.00,meteohub,2013-03-18 04:06:00,
2013-03-17 23:11:00,61.9,51.3,29.71,North,355,3.0,5.0,68,0.00,,,0.00,meteohub,2013-03-18 04:11:00,
2013-03-17 23:17:00,61.5,50.9,29.71,North,355,1.0,4.0,68,0.00,,,0.00,meteohub,2013-03-18 04:17:00,
2013-03-17 23:22:00,61.5,50.5,29.71,North,355,4.0,4.0,67,0.00,,,0.00,meteohub,2013-03-18 04:22:00,
2013-03-17 23:31:00,61.2,50.5,29.71,North,5,2.0,6.0,68,0.00,,,0.00,meteohub,2013-03-18 04:31:00,
2013-03-17 23:37:00,61.0,50.0,29.70,NNE,13,3.0,6.0,67,0.00,,,0.00,meteohub,2013-03-18 04:37:00,
2013-03-17 23:42:00,60.8,49.8,29.70,NNE,13,2.0,6.0,67,0.00,,,0.00,meteohub,2013-03-18 04:42:00,
2013-03-17 23:48:00,60.6,49.6,29.70,NNE,13,2.0,4.0,67,0.00,,,0.00,meteohub,2013-03-18 04:48:00,
2013-03-17 23:53:00,60.4,49.8,29.71,NNE,13,1.0,4.0,68,0.00,,,0.00,meteohub,2013-03-18 04:53:00,
2013-03-17 23:59:00,60.3,49.6,29.71,NNE,13,1.0,4.0,68,0.00,,,0.00,meteohub,2013-03-18 04:59:00,